Weather History for St. Johns, AZ

Change the Weather History Date:

Monday, November 19, 2012

  Actual Average (KSOW) Record (KSOW)
Temperature  
Mean Temperature 38 °F -  
Max Temperature 55 °F 52 °F 71 °F (1996)
Min Temperature 21 °F 32 °F 12 °F (1975)
Degree Days  
Heating Degree Days 27    
Moisture  
Dew Point 21 °F    
Average Humidity 48    
Maximum Humidity 89    
Minimum Humidity 16    
Precipitation  
Precipitation 0.00 in - - ()
Sea Level Pressure  
Sea Level Pressure 30.25 in    
Wind  
Wind Speed 2 mph (SE)    
Max Wind Speed 6 mph    
Max Gust Speed -    
Visibility 10 miles    
Events      
Averages and records for this station are not official NWS values.
T = Trace of Precipitation, MM = Missing Value Source: NWS Daily Summary

Daily Weather History Graph

Daily Weather History Graph

Search for Another Location

Airport:

Trip Planner

Search our weather history database for the weather conditions in past years. The results will help you decide how hot, cold, wet, or windy it might be!

Date:

Astronomy

Nov. 19, 2012 Rise Set
Actual Time 6:55 AM MST 5:10 PM MST
Civil Twilight 6:28 AM MST 5:37 PM MST
Nautical Twilight 5:57 AM MST 6:08 PM MST
Astronomical Twilight 5:27 AM MST 6:38 PM MST
Moon 12:05 PM MST (11/19) 11:34 PM MST (11/19)
Length of Visible Light 11h 09m
Length of Day
10h 15m
Waxing Crescent, 41% of the Moon is Illuminated
Nov 19
Waxing Crescent
Nov 20
First Quarter
Nov 28
Full
Dec 6
Last Quarter
Dec 13
New

Hourly Weather History & Observations

Time (MST) Temp. Windchill Dew Point Humidity Pressure Visibility Wind Dir Wind Speed Gust Speed Precip Events Conditions
12:54 AM 37.0 °F 34.5 °F 24.1 °F 59% 30.15 in 10.0 mi ENE 3.5 mph - N/A   Clear
1:54 AM 32.0 °F - 21.9 °F 66% 30.18 in 10.0 mi Calm Calm - N/A   Clear
2:54 AM 34.0 °F 29.8 °F 24.1 °F 67% 30.18 in 10.0 mi South 4.6 mph - N/A   Clear
3:54 AM 27.0 °F - 19.9 °F 75% 30.19 in 10.0 mi Calm Calm - N/A   Clear
4:54 AM 28.0 °F - 19.9 °F 72% 30.22 in 10.0 mi Calm Calm - N/A   Clear
5:54 AM 27.0 °F 23.0 °F 19.9 °F 75% 30.25 in 10.0 mi SSE 3.5 mph - N/A   Clear
6:54 AM 26.1 °F - 19.0 °F 75% 30.28 in 10.0 mi Calm Calm - N/A   Clear
7:54 AM 30.0 °F - 21.9 °F 72% 30.30 in 9.0 mi Calm Calm - N/A   Clear
8:54 AM 39.9 °F - 26.1 °F 58% 30.29 in 10.0 mi Calm Calm - N/A   Clear
9:54 AM 46.0 °F - 27.0 °F 47% 30.28 in 10.0 mi Calm Calm - N/A   Clear
10:54 AM 52.0 °F - 28.0 °F 40% 30.26 in 10.0 mi Calm Calm - N/A   Clear
11:54 AM 55.0 °F - 28.0 °F 35% 30.23 in 10.0 mi Calm Calm - N/A   Clear
12:54 PM 57.9 °F - 24.1 °F 27% 30.19 in 10.0 mi Calm Calm - N/A   Clear
1:54 PM 60.1 °F - 23.0 °F 24% 30.20 in 10.0 mi Calm Calm - N/A   Clear
2:54 PM 60.1 °F - 21.0 °F 22% 30.18 in 10.0 mi Calm Calm - N/A   Clear
3:54 PM 60.1 °F - 21.0 °F 22% 30.21 in 10.0 mi Calm Calm - N/A   Clear
4:54 PM 57.0 °F - 17.1 °F 21% 30.23 in 10.0 mi NNE 3.5 mph - N/A   Clear
5:54 PM 53.1 °F - 14.0 °F 21% 30.26 in 10.0 mi NNE 3.5 mph - N/A   Clear
6:54 PM 39.9 °F - 16.0 °F 38% 30.32 in 10.0 mi Calm Calm - N/A   Clear
7:54 PM 41.0 °F 37.1 °F 15.8 °F 36% 30.32 in 10.0 mi SSE 5.8 mph - N/A   Clear
8:54 PM 39.9 °F 35.8 °F 18.0 °F 41% 30.29 in 10.0 mi South 5.8 mph - N/A   Clear
9:54 PM 37.9 °F 35.5 °F 19.0 °F 47% 30.27 in 10.0 mi SSE 3.5 mph - N/A   Clear
10:54 PM 37.0 °F 33.3 °F 19.0 °F 48% 30.25 in 10.0 mi SSE 4.6 mph - N/A   Clear
11:54 PM 35.1 °F 31.0 °F 18.0 °F 50% 30.26 in 10.0 mi South 4.6 mph - N/A   Clear